Location: *
(46.1833°N, 22.7667°E)
Time: 07:06:16
(UTC+00:00)

Cosmos 1707 - Pass Details

Date: 17 September 2019
Orbit: 517 x 530 km, 82.5° (Epoch: 18 October)

Event Time Altitude Azimuth Distance (km) Brightness Sun altitude
Rises 18:39:51 0° 342° (NNW) 2,680 7.0 -21.2°
Reaches altitude 10° 18:42:08 10° 334° (NNW) 1,786 6.2 -21.5°
Maximum altitude 18:45:42 35° 268° (W) 878 4.3 -22.0°
Enters shadow 18:48:38 14° 207° (SSW) 1,543 5.1 -22.5°
